Location: Unspecified
(0.0000°N, 0.0000°E)
Time: 05:18:46
(UTC+00:00)

Transit 4A - Pass Details

Date: 04 October 2020
Orbit: 862 x 982 km, 66.8° (Epoch: 28 October)

Event Time Altitude Azimuth Distance (km) Brightness Sun altitude
Rises 20:11:37 0° 233° (SW) 3,480 11.6 -35.6°
Reaches altitude 10° 20:15:02 10° 253° (WSW) 2,559 10.9 -36.5°
Maximum altitude 20:18:38 17° 291° (WNW) 2,147 10.3 -37.4°
Drops below altitude 10° 20:22:17 10° 329° (NNW) 2,602 10.4 -38.3°
Enters shadow 20:23:39 - 338° (NNW) 2,937 10.6 -38.6°
Sets 20:25:50 0° 349° (N) 3,568 - -39.2°
